Regional Weather Roundup
Issued by NWS

Home | Current Version | Previous Version | Graphics & Text | Print | Product List | Glossary On
Versions: 1 2 3 4 5 6 7 8 9 10 11 12 13 14 15 16 17 18 19 20 21 22 23 24 25 26 27 28 29 30 31 32 33 34 35 36 37 38 39 40 41 42 43 44 45 46 47 48 49 50
000
ASUS45 KCYS 130910
RWRWY

WYOMING REGIONAL WEATHER ROUNDUP
NATIONAL WEATHER SERVICE CHEYENNE WY
300 AM MDT SUN JUL 13 2014

NOTE:  "FAIR" INDICATES FEW OR NO CLOUDS BELOW 12,000 FEET
WITH NO SIGNIFICANT WEATHER AND/OR OBSTRUCTIONS TO VISIBILITY.

WYZ001-131000-
YELLOWSTONE NATIONAL PARK

CITY           SKY/WX    TMP DP  RH WIND       PRES   REMARKS
LK YELLOWSTONE   N/A     42  41  96 CALM      30.53S
W YELLOWSTONE  NOT AVBL

$$
WYZ002>013-054>058-071-098>099-131000-
NORTHERN WYOMING

CITY           SKY/WX    TMP DP  RH WIND       PRES   REMARKS
JACKSON        CLEAR     52  48  87 NE6       30.43R
CODY           CLEAR     63  52  67 SW9       30.30F
GREYBULL       NOT AVBL
WORLAND        NOT AVBL
SHERIDAN       NOT AVBL
BUFFALO        PTCLDY    59  48  67 SW8       30.31F
GILLETTE       PTCLDY    58  48  69 CALM      30.27S
HULETT         FAIR      54  46  76 MISG      30.28
NEWCASTLE      FAIR      57  54  88 MISG      30.27

$$
WYZ014>020-022>026-101>103-131000-
CENTRAL WYOMING

CITY           SKY/WX    TMP DP  RH WIND       PRES   REMARKS
BIG PINEY      NOT AVBL
PINEDALE       SUNNY     50  50 100 NW5       30.46S
DUBOIS         FAIR      46  45  93 NW8       30.46S
LANDER         NOT AVBL
RIVERTON       NOT AVBL
CASPER         CLEAR     56  51  84 VRB6      30.33F
DOUGLAS        CLEAR     57  54  89 NW3       30.32S

$$
WYZ021-027>030-104>119-131000-
SOUTHERN WYOMING

CITY           SKY/WX    TMP DP  RH WIND       PRES   REMARKS
EVANSTON       NOT AVBL
KEMMERER       SUNNY     57  46  67 E3        30.46F
FORT BRIDGER     N/A     58  54  86 SE9       30.46S
ROCK SPRINGS   NOT AVBL
DIXON          FAIR      61  52  72 SE5       30.40R
RAWLINS        CLOUDY    61  51  70 N3        30.40F
SARATOGA       FAIR      59  50  72 S5        30.43S
LARAMIE        PTCLDY    55  52  89 SE7       30.43F
CHEYENNE       PTCLDY    59  56  89 W8        30.36F
TORRINGTON     PTCLDY    63  61  93 N3        30.25F

$$


USA.gov is the U.S. government's official web portal to all federal, state and local government web resources and services.